Probability
0 0 0 0 0 0 0 0 0 0 0 0 0 0 0 0 0 0 0 0 0 0 0 0 0 0 0 0 0 0 0 0 0 0 0 0 0 0 0 0 0 0 0
0 0 0 0 0 0 0 0 0 0 0 0 0 0 0 0 0 0 0 0 0 0 0 0 0 0 0 0 0 0 0 0 0 0 0 0 0 0 0 0 0 0 0
0 0 0 1 1 1 0 0 0 0 0 0 0 0 0 0 0 0 0 0 0 0 0 0 0 0 0 0 0 0 0 0 0 0 0 0 0 0 0 0 0 0 0
0 0 0 2 5 6 4 3 2 1 0 0 0 0 0 0 0 0 0 0 0 0 0 0 0 0 0 0 0 0 0 0 0 0 0 0 0 0 0 0 0 0 0
0 0 0 4 10 15 16 15 14 11 8 5 4 3 1 0 0 0 0 0 0 0 0 0 0 0 0 0 0 0 0 0 0 0 0 0 0 0 0 0 0 0 0
0 0 1 4 10 15 20 25 25 22 21 18 15 13 9 5 4 2 1 1 0 0 0 0 0 0 0 0 0 0 0 0 0 0 0 0 0 0 0 0 0 0 0
0 0 0 2 5 7 10 16 18 19 22 23 21 21 21 19 16 11 8 5 3 1 1 1 1 2 1 0 1 3 4 2 0 0 0 0 0 0 0 0 0 0 0
0 0 0 0 1 1 2 3 5 7 10 12 12 14 23 29 28 24 19 16 15 12 8 7 7 9 8 5 7 13 14 7 1 0 0 0 1 0 0 0 0 0 0
0 0 0 0 0 0 0 0 0 1 2 2 2 4 12 20 25 27 27 31 36 34 29 22 19 22 24 22 21 25 24 12 2 1 2 4 4 2 0 0 0 0 0
0 0 0 0 0 0 0 0 0 0 0 0 0 0 2 5 11 16 21 30 43 51 51 43 37 42 47 45 39 36 26 10 5 10 17 18 12 4 1 0 0 0 0
0 0 0 0 0 0 0 0 0 0 0 0 0 0 0 0 2 4 7 13 25 40 47 47 49 56 58 50 42 33 18 7 9 24 36 37 23 13 13 13 8 2 0
0 0 0 0 0 0 0 0 0 0 0 0 0 0 0 0 0 0 1 2 7 14 22 30 41 47 45 42 39 29 14 6 11 22 36 35 26 26 38 44 30 11 2
0 0 0 0 0 0 0 0 0 0 0 0 0 0 0 0 0 0 1 1 1 1 4 11 19 22 24 30 37 30 17 11 10 13 17 17 18 28 51 68 61 32 13
0 0 0 0 0 0 0 0 0 0 0 0 0 0 0 0 0 0 0 0 0 0 0 2 4 5 9 16 21 20 17 15 12 8 6 5 7 16 35 61 74 60 38
0 0 0 0 0 0 0 0 0 0 0 0 0 0 0 0 0 0 0 0 0 0 0 0 0 0 1 2 4 5 8 9 8 6 3 2 2 4 13 33 58 69 65
0 0 0 0 0 0 0 0 0 0 0 0 0 0 0 0 0 0 0 0 0 0 0 0 0 0 0 0 1 1 2 3 2 2 2 1 0 0 2 10 28 53 69
0 0 0 0 0 0 0 0 0 0 0 0 0 0 0 0 0 0 0 0 0 0 0 0 0 0 0 0 1 1 1 1 0 0 0 0 0 0 0 1 8 29 50
0 0 0 0 0 0 0 0 0 0 0 0 0 0 0 0 0 0 0 0 0 0 0 0 0 0 0 0 1 1 1 0 0 0 0 0 1 0 0 0 1 11 24
0 0 0 0 0 0 0 0 0 0 0 0 0 0 0 0 0 0 0 0 0 0 0 0 0 0 0 0 0 1 1 0 0 0 0 0 0 0 0 0 0 3 8
0 0 0 0 0 0 0 0 0 0 0 0 0 0 0 0 0 0 0 0 0 0 0 0 0 0 0 0 0 0 0 0 0 0 0 0 0 0 0 0 1 4 6
0 0 0 0 0 0 0 0 0 0 0 0 0 0 0 0 0 0 0 0 0 0 0 0 0 0 0 0 0 0 0 0 0 0 0 0 0 0 0 0 3 9 14
0 0 0 0 0 0 0 0 0 0 0 0 0 0 0 0 0 0 0 0 0 0 0 0 0 0 0 0 0 0 0 0 0 0 0 0 0 0 0 0 3 10 17
0 0 0 0 0 0 0 0 0 0 0 0 0 0 0 0 0 0 0 0 0 0 0 0 0 0 0 0 0 0 0 0 0 0 0 0 0 0 0 0 2 8 15
0 0 0 0 0 0 0 0 0 0 0 0 0 0 0 0 0 0 0 0 0 0 0 0 0 0 0 0 0 0 0 0 0 0 0 0 0 0 0 2 4 8 12
0 0 0 0 0 0 0 0 0 0 0 0 0 0 0 0 0 0 0 0 0 0 0 0 0 0 0 0 0 0 0 0 0 0 0 0 0 0 1 3 6 8 9
0 0 0 0 0 0 0 0 0 0 0 0 0 0 0 0 0 0 0 0 0 0 0 0 0 0 0 0 0 0 0 0 0 0 0 0 0 0 1 3 5 6 7
Wind_Speed
10 6 7 6 6 6 6 7 7 8 8 8 7 7 6 6 5 5 4 3 3 3 3 2 2 2 2 1 2 2 2 2 1 1 2 5 6 6 6 4 4 5 6
11 7 8 8 8 8 8 8 8 8 8 8 8 8 8 7 7 7 7 6 5 5 5 5 4 4 4 4 3 3 3 2 2 2 1 4 5 5 5 4 3 4 5
13 11 11 11 10 9 9 8 8 8 9 9 9 9 9 9 9 8 9 8 7 7 7 7 7 7 6 5 4 4 4 4 3 2 3 5 6 5 5 5 3 4 4
16 15 18 19 14 12 10 10 9 9 9 10 10 10 10 11 11 10 10 9 8 7 8 8 8 8 8 7 6 6 6 6 5 4 7 5 5 6 5 5 6 6 5
17 17 20 24 22 18 15 13 12 12 11 11 11 11 12 12 12 11 11 10 8 7 7 8 8 8 8 8 7 7 7 7 6 8 6 4 4 5 5 6 6 6 6
18 18 21 27 26 25 24 22 19 18 16 15 14 14 13 14 13 13 12 11 9 8 8 7 7 7 7 7 8 8 8 8 9 10 7 6 5 5 6 6 6 6 7
19 19 21 27 27 27 27 26 25 24 22 20 19 18 16 15 15 14 13 12 10 9 8 7 6 5 5 6 6 6 6 6 11 8 7 7 5 3 7 8 8 7 8
20 20 20 25 25 26 27 27 26 25 24 23 22 21 19 17 16 15 13 12 11 10 9 8 7 6 5 5 4 4 3 5 10 9 9 8 4 5 9 10 10 9 9
21 20 19 20 20 22 24 26 25 25 25 24 24 24 21 18 16 15 14 13 12 11 11 10 9 8 7 6 5 3 2 3 10 7 9 7 6 7 10 10 11 11 10
21 21 20 20 19 18 17 22 23 23 24 23 23 24 22 18 16 15 14 15 14 13 12 11 10 10 9 8 6 4 3 6 11 9 7 6 6 8 10 10 12 13 12
21 20 20 20 20 18 16 17 18 18 20 20 18 22 18 14 14 13 16 17 16 15 13 12 11 10 9 9 8 5 6 8 8 7 7 3 5 9 11 10 11 14 14
22 21 19 19 19 18 14 13 12 12 14 15 15 17 13 12 11 13 14 15 16 15 13 10 10 10 11 8 8 9 7 8 8 7 5 5 7 10 12 12 11 13 15
18 19 19 18 18 17 13 12 9 9 10 12 16 17 14 11 10 10 8 9 11 12 10 9 8 7 7 7 7 7 7 7 5 6 5 7 9 11 12 13 12 13 15
18 19 19 18 17 16 14 11 10 9 9 10 12 16 13 10 11 11 8 10 9 7 9 9 7 8 9 9 9 10 9 7 6 5 4 6 10 12 13 13 14 14 14
19 19 19 19 18 16 13 11 11 10 10 11 10 12 14 11 12 12 10 9 10 9 10 9 9 10 9 9 9 10 10 10 9 8 5 8 10 12 14 15 15 15 15
19 19 19 19 18 17 14 13 11 11 11 10 10 13 14 12 12 12 12 11 10 10 11 11 12 11 10 8 9 10 11 10 10 9 8 7 11 12 13 15 16 16 17
18 18 18 18 18 18 16 15 11 11 12 11 11 13 14 14 14 13 11 11 10 12 13 11 12 10 10 10 11 11 10 11 10 10 10 8 7 11 14 15 16 17 17
17 18 18 16 18 18 16 15 11 11 12 11 11 11 15 16 16 13 11 11 12 12 10 10 10 10 10 10 10 10 9 9 12 12 10 9 8 8 10 14 15 17 18
17 18 18 18 18 18 17 14 13 12 12 11 11 11 14 16 16 14 11 11 13 11 10 10 10 10 11 11 11 10 10 10 11 11 12 12 11 10 9 9 13 15 17
17 18 18 18 18 17 14 12 11 12 11 11 11 12 16 14 16 14 11 13 13 11 11 11 13 11 11 11 11 12 12 11 11 11 12 11 10 12 11 11 9 11 17
18 19 19 19 18 15 13 13 13 13 12 11 11 15 15 16 16 14 11 13 12 11 13 14 12 13 11 10 10 11 12 14 14 12 11 11 12 12 12 12 10 9 8
17 18 18 18 17 16 14 12 12 13 11 11 12 13 15 16 15 12 13 12 12 12 13 13 13 10 10 9 9 9 9 11 12 12 12 11 12 11 11 12 12 11 10
16 17 16 18 17 16 16 12 12 10 10 10 12 12 15 16 15 14 14 13 13 12 11 13 13 13 10 10 9 8 8 8 8 9 12 12 12 11 10 10 12 12 12
15 15 16 17 16 16 16 14 16 13 12 14 12 12 16 16 15 14 14 14 13 12 12 12 12 12 11 10 9 8 10 11 10 8 7 9 11 11 10 8 9 10 11
14 14 15 16 15 16 16 16 15 13 12 12 13 15 15 14 14 15 15 14 14 12 13 14 14 13 10 10 9 9 10 10 12 11 12 10 8 9 9 9 8 8 9
13 14 14 15 15 16 16 16 15 16 16 16 17 16 14 12 13 16 16 15 14 13 13 14 14 15 12 12 10 9 8 8 8 9 11 11 11 9 9 8 8 8 7
Wind_Direction
0 16 15 17 15 10 3 357 358 357 354 351 350 349 350 350 350 350 352 351 343 336 328 317 300 290 280 248 195 151 105 75 67 104 173 172 160 154 148 151 193 149 116
355 20 24 14 5 359 355 352 351 349 347 345 343 341 338 335 330 325 325 322 315 304 293 287 281 275 267 256 229 190 166 126 93 90 130 174 168 171 166 173 266 102 136
9 14 19 15 0 354 348 344 341 340 337 334 333 332 330 327 323 318 319 315 310 307 297 287 280 277 272 263 242 218 198 179 155 137 221 205 169 174 178 180 199 154 163
15 17 16 11 3 355 347 341 336 332 329 326 323 322 320 318 316 312 316 312 309 312 309 293 281 273 270 265 251 235 220 202 185 200 222 198 185 154 186 193 200 192 184
22 22 21 18 17 13 5 355 346 338 330 324 319 316 313 311 310 309 313 313 307 306 309 304 287 271 265 260 251 242 231 215 197 227 225 206 206 154 201 204 210 203 197
27 26 26 23 25 24 22 18 12 4 354 343 333 324 315 309 307 309 308 309 304 297 299 301 295 278 268 261 252 245 236 219 213 225 220 216 214 168 221 213 215 213 207
29 27 28 27 27 27 26 25 24 20 16 9 1 349 335 322 314 310 308 307 300 293 293 294 296 289 275 265 258 251 240 217 238 234 225 224 222 189 235 222 214 215 213
32 28 27 27 27 27 27 25 24 21 18 16 12 3 354 342 329 319 314 311 304 296 291 290 290 288 278 270 265 259 248 242 234 234 229 230 199 220 243 230 213 213 213
32 29 26 23 22 22 26 23 22 20 17 15 13 7 359 353 346 340 333 325 315 302 292 285 282 280 276 268 260 249 241 255 259 237 232 231 178 224 249 240 218 213 214
31 28 23 21 19 15 16 20 17 17 14 11 11 6 359 354 354 352 352 349 337 321 305 289 279 275 272 266 257 243 233 244 244 240 234 216 173 231 251 246 227 216 215
27 24 20 17 15 11 9 10 10 12 11 7 7 4 358 355 355 350 355 350 347 341 324 304 287 276 268 246 236 236 240 246 244 246 239 176 197 241 249 250 237 222 216
21 18 17 15 11 8 5 4 3 5 4 4 3 0 356 352 350 347 341 346 344 338 325 318 305 279 256 250 216 208 241 243 251 245 232 162 228 246 250 250 245 230 221
18 16 14 13 9 7 2 359 358 356 357 357 359 358 352 350 346 347 341 341 340 336 335 326 308 289 277 266 263 248 250 255 250 249 232 183 229 244 250 249 246 239 227
17 14 9 9 7 4 360 354 354 353 352 352 353 355 353 348 345 345 337 337 334 333 330 323 311 298 288 274 260 257 255 250 251 251 239 193 233 244 248 250 247 243 232
14 10 6 4 4 360 356 351 351 350 349 346 348 352 353 347 343 341 333 334 331 331 326 320 310 305 292 281 271 262 258 255 253 250 236 203 229 242 247 248 247 245 238
11 6 3 1 0 356 354 350 347 345 344 345 347 349 351 347 342 336 330 331 331 330 325 314 308 304 292 280 272 265 262 260 255 252 252 223 216 234 245 247 246 243 242
7 3 2 357 356 355 352 349 345 343 344 343 344 345 350 347 341 335 328 327 332 327 321 316 311 303 295 287 274 265 262 261 260 257 253 252 238 221 230 242 246 244 241
5 2 360 357 354 354 351 346 344 342 343 342 342 342 348 344 342 334 328 328 331 325 321 320 315 309 299 290 282 274 265 257 255 254 253 247 249 249 229 225 237 243 242
5 1 358 357 354 352 349 345 342 341 342 340 342 344 344 342 342 335 328 330 330 326 325 323 322 316 304 296 286 277 267 261 256 252 250 249 246 245 251 229 221 235 241
4 0 357 355 354 351 348 342 341 340 341 340 342 343 341 340 341 336 331 333 332 327 327 325 323 318 305 295 286 277 269 262 256 253 253 250 245 243 244 249 240 228 228
2 359 356 354 353 353 349 343 341 339 339 339 340 339 339 339 339 337 336 334 333 328 324 321 324 320 316 309 293 277 262 253 250 250 248 249 245 242 243 244 245 247 230
359 356 352 352 350 352 347 339 336 331 333 335 335 334 336 336 337 335 336 333 331 326 323 324 323 317 315 316 304 294 272 257 240 239 242 243 245 243 242 242 243 241 244
359 355 350 349 346 349 345 340 336 335 334 338 337 334 334 333 333 333 333 332 329 327 321 321 318 316 313 309 299 288 283 270 275 241 235 238 240 240 240 242 242 242 241
356 353 348 347 346 348 346 346 343 341 339 337 335 330 330 331 331 333 332 330 329 325 321 319 318 312 307 305 303 287 284 289 284 275 249 237 238 239 239 239 242 241 242
354 352 348 346 347 349 348 347 343 341 338 333 334 332 333 331 331 332 333 329 326 324 322 319 315 310 305 300 299 298 292 283 267 266 267 260 244 237 239 239 238 240 241
353 352 348 346 347 348 347 346 344 342 339 336 338 336 334 330 330 332 332 328 325 324 322 319 315 311 305 300 296 292 291 286 282 273 264 262 261 254 244 243 244 241 239